HAL11 PHOG-PHMK

Flight info

Callsign HAL11
Flight time N/A
Altitude 10000
Route OGG V6 BLUSH V8 MKK
Aircraft DHC6/L-SDFGR/C

Departure

Time 2026-04-20 23:09
Airport Kahului International Airport (PHOG)

Arrival

Time N/A
Airport Molokai Airport (PHMK)
Time Latitude Longitude Altitude Speed Heading
2026-04-20 22:58 20.88948 -156.43951 42 ft 0 kts 304°
2026-04-20 23:05 20.88949 -156.43953 42 ft 1 kts 323°
2026-04-20 23:05 20.88953 -156.43953 42 ft 0 kts 24°
2026-04-20 23:06 20.88955 -156.43950 42 ft 0 kts 69°
2026-04-20 23:06 20.88954 -156.43946 42 ft 1 kts 132°
2026-04-20 23:06 20.88931 -156.43945 42 ft 7 kts 180°
2026-04-20 23:06 20.88908 -156.43897 42 ft 9 kts 90°
2026-04-20 23:07 20.88933 -156.43835 42 ft 9 kts 50°
2026-04-20 23:07 20.88976 -156.43780 42 ft 10 kts 56°
2026-04-20 23:07 20.88992 -156.43711 42 ft 10 kts 101°
2026-04-20 23:07 20.88958 -156.43647 41 ft 11 kts 126°
2026-04-20 23:08 20.88977 -156.43587 42 ft 10 kts 34°
2026-04-20 23:08 20.89031 -156.43545 42 ft 10 kts 36°
2026-04-20 23:08 20.89134 -156.43464 42 ft 41 kts 36°
2026-04-20 23:08 20.89524 -156.43174 45 ft 93 kts 37°
2026-04-20 23:09 20.90103 -156.42718 278 ft 107 kts 34°
2026-04-20 23:09 20.90723 -156.42294 661 ft 107 kts 36°
2026-04-20 23:09 20.91372 -156.41790 762 ft 123 kts 40°
2026-04-20 23:09 20.92028 -156.41208 799 ft 122 kts 39°
2026-04-20 23:10 20.92822 -156.40843 766 ft 126 kts 13°
2026-04-20 23:10 20.93689 -156.40965 786 ft 129 kts 344°
2026-04-20 23:10 20.94467 -156.41436 843 ft 129 kts 329°
2026-04-20 23:10 20.95182 -156.42012 872 ft 128 kts 332°
2026-04-20 23:11 20.95918 -156.42552 870 ft 128 kts 332°
2026-04-20 23:11 20.96748 -156.42679 762 ft 125 kts 27°
2026-04-20 23:11 20.97237 -156.41966 665 ft 126 kts 80°
2026-04-20 23:11 20.97081 -156.40997 640 ft 140 kts 109°
2026-04-20 23:12 20.96704 -156.40042 823 ft 139 kts 112°
2026-04-20 23:12 20.96296 -156.39087 945 ft 142 kts 113°
2026-04-20 23:12 20.95686 -156.38279 1165 ft 143 kts 141°
2026-04-20 23:12 20.94927 -156.37586 1246 ft 147 kts 129°
2026-04-20 23:13 20.94323 -156.36699 1287 ft 149 kts 115°
2026-04-20 23:13 20.93928 -156.35673 1307 ft 151 kts 104°
2026-04-20 23:13 20.93718 -156.34575 1355 ft 151 kts 95°
2026-04-20 23:13 20.93545 -156.33456 1406 ft 155 kts 97°
2026-04-20 23:14 20.93370 -156.32327 1534 ft 153 kts 95°
2026-04-20 23:14 20.93236 -156.31174 1519 ft 159 kts 94°
2026-04-20 23:14 20.93154 -156.29993 1522 ft 159 kts 88°
2026-04-20 23:14 20.93209 -156.28816 1482 ft 160 kts 83°
2026-04-20 23:15 20.93222 -156.27602 1417 ft 164 kts 89°
2026-04-20 23:15 20.93132 -156.26393 1411 ft 163 kts 98°
2026-04-20 23:15 20.92682 -156.25297 1444 ft 161 kts 116°
2026-04-20 23:15 20.92067 -156.24277 1383 ft 166 kts 121°
2026-04-20 23:16 20.91385 -156.23252 1317 ft 170 kts 124°
2026-04-20 23:16 20.90668 -156.22277 1369 ft 163 kts 128°
2026-04-20 23:16 20.89963 -156.21338 1373 ft 162 kts 128°
2026-04-20 23:16 20.89263 -156.20390 1298 ft 165 kts 126°
2026-04-20 23:17 20.88555 -156.19393 1199 ft 170 kts 123°
2026-04-20 23:17 20.88037 -156.18271 1050 ft 171 kts 104°
2026-04-20 23:17 20.87718 -156.17105 980 ft 160 kts 106°
2026-04-20 23:17 20.87047 -156.16313 1000 ft 142 kts 165°
2026-04-20 23:18 20.86095 -156.16529 611 ft 144 kts 213°
2026-04-20 23:18 20.85311 -156.17128 413 ft 124 kts 221°
2026-04-20 23:18 20.84701 -156.17641 603 ft 99 kts 203°
2026-04-20 23:18 20.84407 -156.17690 723 ft 0 kts 138°
2026-04-20 23:19 20.84408 -156.17690 717 ft 0 kts 120°